�������l�o���
Date,Time,MP-1(��Sv/h),MP-2(��Sv/h),MP-3(��Sv/h),MP-4(��Sv/h),MP-5(��Sv/h),MP-6(��Sv/h),MP-7(��Sv/h),MP-8(��Sv/h),����,����(m/s),���J
2023/10/12,00:00,0.513,0.782,0.483,0.967,0.698,0.316,0.565,0.524,�k�k��,6.3,��
2023/10/12,00:10,0.513,0.781,0.483,0.969,0.696,0.315,0.566,0.526,�k�k��,6.5,��
2023/10/12,00:20,0.512,0.781,0.484,0.967,0.699,0.315,0.566,0.524,�k�k��,5.9,��
2023/10/12,00:30,0.514,0.781,0.484,0.967,0.697,0.315,0.566,0.527,�k�k��,5.6,��
2023/10/12,00:40,0.512,0.778,0.481,0.966,0.695,0.315,0.565,0.525,�k��,6.0,��
2023/10/12,00:50,0.513,0.781,0.482,0.969,0.698,0.314,0.567,0.524,�k�k��,6.7,��
2023/10/12,01:00,0.513,0.779,0.481,0.968,0.698,0.315,0.564,0.525,�k�k��,6.4,��
2023/10/12,01:10,0.513,0.781,0.483,0.968,0.696,0.314,0.564,0.525,�k�k��,6.1,��
2023/10/12,01:20,0.513,0.781,0.483,0.968,0.696,0.315,0.566,0.525,�k�k��,6.3,��
2023/10/12,01:30,0.513,0.780,0.482,0.969,0.697,0.316,0.565,0.526,�k�k��,6.3,��
2023/10/12,01:40,0.512,0.780,0.483,0.968,0.697,0.315,0.565,0.525,�k�k��,5.9,��
2023/10/12,01:50,0.512,0.778,0.482,0.970,0.697,0.315,0.565,0.525,�k��,5.7,��
2023/10/12,02:00,0.512,0.781,0.484,0.969,0.695,0.315,0.564,0.525,�k��,5.2,��
2023/10/12,02:10,0.513,0.781,0.483,0.969,0.697,0.315,0.565,0.524,�k��,5.7,��
2023/10/12,02:20,0.514,0.780,0.481,0.969,0.697,0.314,0.567,0.525,�k��,6.1,��
2023/10/12,02:30,0.515,0.782,0.482,0.968,0.698,0.314,0.567,0.524,�k��,5.5,��
2023/10/12,02:40,0.514,0.780,0.482,0.968,0.698,0.316,0.566,0.525,�k��,5.6,��
2023/10/12,02:50,0.513,0.781,0.483,0.970,0.696,0.314,0.568,0.525,�k��,6.0,��
2023/10/12,03:00,0.513,0.781,0.481,0.968,0.695,0.313,0.565,0.525,�k��,5.5,��
2023/10/12,03:10,0.514,0.780,0.481,0.969,0.696,0.315,0.565,0.525,�k�k��,5.2,��
2023/10/12,03:20,0.514,0.780,0.482,0.968,0.698,0.314,0.566,0.525,�k��,6.0,��
2023/10/12,03:30,0.514,0.780,0.484,0.970,0.696,0.314,0.565,0.526,�k��,6.1,��
2023/10/12,03:40,0.513,0.782,0.483,0.969,0.695,0.314,0.563,0.525,�k��,5.3,��
2023/10/12,03:50,0.513,0.780,0.482,0.969,0.697,0.315,0.565,0.526,�k��,6.3,��
2023/10/12,04:00,0.512,0.779,0.482,0.971,0.698,0.314,0.564,0.524,�k��,5.3,��
2023/10/12,04:10,0.514,0.779,0.482,0.968,0.696,0.314,0.564,0.526,�k��,5.2,��
2023/10/12,04:20,0.513,0.782,0.481,0.969,0.696,0.316,0.566,0.524,�k��,5.2,��
2023/10/12,04:30,0.513,0.780,0.481,0.968,0.697,0.316,0.565,0.525,�k��,5.6,��
2023/10/12,04:40,0.513,0.781,0.483,0.970,0.697,0.313,0.564,0.524,�k��,5.8,��
2023/10/12,04:50,0.513,0.780,0.481,0.969,0.696,0.315,0.566,0.524,�k��,5.8,��
2023/10/12,05:00,0.513,0.780,0.481,0.968,0.696,0.315,0.564,0.527,�k��,5.3,��
2023/10/12,05:10,0.514,0.780,0.483,0.969,0.694,0.315,0.565,0.526,�k��,4.6,��
2023/10/12,05:20,0.513,0.778,0.481,0.969,0.695,0.316,0.566,0.527,�k��,5.4,��
2023/10/12,05:30,0.514,0.781,0.483,0.969,0.697,0.315,0.565,0.525,�k��,4.8,��
2023/10/12,05:40,0.513,0.780,0.482,0.969,0.697,0.313,0.565,0.525,�k��,5.4,��
2023/10/12,05:50,0.514,0.781,0.481,0.971,0.697,0.317,0.564,0.525,�k��,5.6,��
2023/10/12,06:00,0.513,0.781,0.482,0.967,0.697,0.314,0.566,0.525,�k��,5.9,��
2023/10/12,06:10,0.513,0.780,0.483,0.969,0.698,0.314,0.565,0.524,�k��,5.6,��
2023/10/12,06:20,0.514,0.780,0.482,0.971,0.695,0.314,0.564,0.525,�k��,6.0,��
2023/10/12,06:30,0.513,0.779,0.482,0.970,0.695,0.315,0.564,0.528,�k��,6.5,��
2023/10/12,06:40,0.512,0.780,0.480,0.971,0.696,0.313,0.566,0.526,�k��,5.7,��
2023/10/12,06:50,0.513,0.779,0.483,0.969,0.696,0.314,0.564,0.526,�k��,5.7,��
2023/10/12,07:00,0.513,0.781,0.482,0.972,0.697,0.315,0.565,0.526,�k��,5.9,��
2023/10/12,07:10,0.513,0.782,0.483,0.971,0.696,0.316,0.565,0.525,�k��,5.7,��
2023/10/12,07:20,0.513,0.783,0.482,0.968,0.698,0.314,0.564,0.525,�k��,6.0,��
2023/10/12,07:30,0.513,0.781,0.482,0.969,0.696,0.315,0.565,0.527,�k��,4.9,��
2023/10/12,07:40,0.512,0.781,0.483,0.970,0.697,0.315,0.566,0.526,�k��,4.8,��
2023/10/12,07:50,0.514,0.782,0.483,0.968,0.696,0.315,0.566,0.525,�k��,3.9,��
2023/10/12,08:00,0.515,0.781,0.482,0.969,0.698,0.316,0.565,0.527,�k��,3.9,��
2023/10/12,08:10,0.514,0.781,0.483,0.971,0.696,0.316,0.565,0.526,�k�k��,4.0,��
2023/10/12,08:20,0.513,0.780,0.483,0.970,0.697,0.315,0.564,0.526,�k��,3.9,��
2023/10/12,08:30,0.513,0.780,0.482,0.970,0.697,0.316,0.564,0.525,�k�k��,3.4,��
2023/10/12,08:40,0.514,0.777,0.485,0.970,0.696,0.315,0.564,0.527,�k�k��,3.8,��
2023/10/12,08:50,0.513,0.779,0.483,0.973,0.697,0.315,0.566,0.526,�k�k��,3.0,��
2023/10/12,09:00,0.513,0.778,0.483,0.971,0.699,0.315,0.564,0.526,�k�k��,2.5,��
2023/10/12,09:10,0.513,0.778,0.483,0.970,0.699,0.317,0.564,0.527,�k�k��,3.2,��
2023/10/12,09:20,0.513,0.778,0.483,0.972,0.697,0.316,0.564,0.526,�k�k��,2.2,��
2023/10/12,09:30,0.513,0.779,0.483,0.969,0.696,0.314,0.565,0.526,�k�k��,3.2,��
2023/10/12,09:40,0.512,0.778,0.482,0.971,0.697,0.314,0.563,0.527,�k,3.3,��
2023/10/12,09:50,0.514,0.779,0.482,0.970,0.695,0.313,0.564,0.525,�k�k��,3.3,��
2023/10/12,10:00,0.514,0.778,0.482,0.973,0.697,0.314,0.565,0.525,�k�k��,3.5,��
2023/10/12,10:10,0.513,0.781,0.482,0.970,0.699,0.313,0.563,0.525,�k�k��,2.9,��
2023/10/12,10:20,0.513,0.780,0.483,0.971,0.700,0.314,0.564,0.526,�k��,3.1,��
2023/10/12,10:30,0.515,0.781,0.481,0.971,0.699,0.314,0.563,0.526,�k��,3.2,��
2023/10/12,10:40,0.513,0.781,0.480,0.970,0.699,0.315,0.562,0.524,�k��,4.5,��
2023/10/12,10:50,0.512,0.783,0.481,0.972,0.700,0.314,0.563,0.526,�k��,4.0,��
2023/10/12,11:00,0.498,0.782,0.482,0.971,0.698,0.314,0.563,0.525,�k��,4.2,��
2023/10/12,11:10,0.494,0.781,0.483,0.971,0.700,0.314,0.563,0.524,�k��,4.0,��
2023/10/12,11:20,0.497,0.785,0.481,0.970,0.697,0.313,0.565,0.524,�k��,4.3,��
2023/10/12,11:30,0.496,0.783,0.482,0.971,0.699,0.315,0.565,0.527,�k��,4.8,��
2023/10/12,11:40,0.495,0.783,0.482,0.972,0.700,0.315,0.564,0.525,�k�k��,5.0,��
2023/10/12,11:50,0.496,0.782,0.482,0.973,0.700,0.315,0.563,0.526,�k�k��,5.4,��
2023/10/12,12:00,0.500,0.784,0.481,0.974,0.701,0.314,0.563,0.526,�k�k��,5.4,��
2023/10/12,12:10,0.513,0.787,0.482,0.973,0.701,0.316,0.565,0.524,�k�k��,5.8,��
2023/10/12,12:20,0.515,0.786,0.483,0.970,0.701,0.315,0.566,0.526,�k�k��,5.1,��
2023/10/12,12:30,0.516,0.786,0.484,0.972,0.701,0.316,0.563,0.527,�k�k��,5.6,��
2023/10/12,12:40,0.515,0.786,0.482,0.974,0.701,0.315,0.565,0.524,�k��,5.5,��
2023/10/12,12:50,0.517,0.786,0.483,0.974,0.700,0.314,0.564,0.528,�k�k��,5.4,��
2023/10/12,13:00,0.517,0.785,0.484,0.972,0.701,0.316,0.565,0.525,�k��,5.1,��
2023/10/12,13:10,0.515,0.788,0.483,0.972,0.702,0.315,0.565,0.526,�k�k��,5.0,��
2023/10/12,13:20,0.517,0.788,0.485,0.973,0.703,0.315,0.566,0.527,�k�k��,4.2,��
2023/10/12,13:30,0.517,0.786,0.482,0.973,0.703,0.315,0.567,0.527,�k��,4.2,��
2023/10/12,13:40,0.517,0.786,0.484,0.976,0.701,0.316,0.563,0.527,�k�k��,3.7,��
2023/10/12,13:50,0.516,0.785,0.483,0.974,0.704,0.314,0.566,0.526,�k�k��,3.6,��
2023/10/12,14:00,0.516,0.786,0.483,0.976,0.704,0.314,0.568,0.525,�k��,3.3,��
2023/10/12,14:10,0.516,0.785,0.482,0.973,0.704,0.315,0.565,0.526,�k��,3.4,��
2023/10/12,14:20,0.516,0.787,0.484,0.975,0.704,0.316,0.566,0.527,�k��,3.2,��
2023/10/12,14:30,0.517,0.787,0.484,0.975,0.704,0.315,0.566,0.526,�k��,2.5,��
2023/10/12,14:40,0.516,0.788,0.483,0.972,0.704,0.316,0.566,0.526,�k��,3.5,��
2023/10/12,14:50,0.517,0.788,0.484,0.976,0.703,0.316,0.565,0.526,�k��,2.5,��
2023/10/12,15:00,0.516,0.788,0.483,0.974,0.702,0.316,0.565,0.526,�k��,2.0,��
2023/10/12,15:10,0.517,0.786,0.485,0.972,0.702,0.315,0.565,0.525,��,2.3,��
2023/10/12,15:20,0.517,0.787,0.485,0.974,0.704,0.315,0.565,0.524,���k��,1.9,��
2023/10/12,15:30,0.517,0.785,0.483,0.974,0.703,0.314,0.564,0.526,�k��,1.9,��
2023/10/12,15:40,0.516,0.787,0.484,0.971,0.702,0.315,0.566,0.524,��,1.2,��
2023/10/12,15:50,0.517,0.789,0.484,0.973,0.704,0.316,0.565,0.526,�k��,1.9,��
2023/10/12,16:00,0.517,0.786,0.484,0.972,0.703,0.317,0.566,0.526,�k��,1.7,��
2023/10/12,16:10,0.514,0.788,0.485,0.972,0.704,0.317,0.566,0.524,�k��,1.1,��
2023/10/12,16:20,0.515,0.788,0.484,0.972,0.701,0.316,0.564,0.525,��,0.9,��
2023/10/12,16:30,0.517,0.786,0.483,0.972,0.703,0.316,0.565,0.527,���쓌,0.9,��
2023/10/12,16:40,0.516,0.788,0.482,0.972,0.705,0.318,0.566,0.527,��쐼,1.2,��
2023/10/12,16:50,0.515,0.791,0.482,0.973,0.704,0.316,0.565,0.527,��쐼,1.2,��
2023/10/12,17:00,0.517,0.792,0.485,0.973,0.706,0.316,0.565,0.527,�쐼,1.5,��
2023/10/12,17:10,0.515,0.790,0.485,0.976,0.707,0.318,0.568,0.527,�쐼,1.5,��
2023/10/12,17:20,0.518,0.791,0.486,0.976,0.706,0.316,0.566,0.528,��쐼,2.0,��
2023/10/12,17:30,0.518,0.792,0.486,0.976,0.704,0.316,0.565,0.529,�쐼,2.3,��
2023/10/12,17:40,0.520,0.792,0.487,0.976,0.706,0.318,0.566,0.528,�쐼,2.2,��
2023/10/12,17:50,0.518,0.790,0.486,0.976,0.706,0.318,0.565,0.527,��쐼,2.0,��
2023/10/12,18:00,0.517,0.791,0.484,0.975,0.705,0.317,0.565,0.528,�쐼,3.1,��
2023/10/12,18:10,0.518,0.790,0.486,0.976,0.706,0.317,0.567,0.526,�쐼,2.6,��
2023/10/12,18:20,0.519,0.790,0.485,0.974,0.706,0.317,0.568,0.527,�쐼,2.6,��
2023/10/12,18:30,0.517,0.788,0.485,0.975,0.706,0.317,0.565,0.528,�쐼,3.2,��
2023/10/12,18:40,0.517,0.792,0.485,0.977,0.706,0.316,0.566,0.526,�쐼,2.5,��
2023/10/12,18:50,0.518,0.790,0.484,0.976,0.706,0.317,0.566,0.527,�쐼,1.7,��
2023/10/12,19:00,0.519,0.791,0.485,0.976,0.706,0.318,0.564,0.526,�쐼,3.8,��
2023/10/12,19:10,0.520,0.789,0.485,0.974,0.705,0.317,0.565,0.528,�쐼,3.2,��
2023/10/12,19:20,0.519,0.789,0.485,0.977,0.707,0.317,0.566,0.527,�쐼,3.0,��
2023/10/12,19:30,0.519,0.790,0.485,0.976,0.706,0.316,0.566,0.528,�쐼,3.4,��
2023/10/12,19:40,0.518,0.790,0.485,0.980,0.706,0.316,0.566,0.527,���쐼,3.6,��
2023/10/12,19:50,0.519,0.790,0.486,0.976,0.706,0.317,0.566,0.527,��,3.2,��
2023/10/12,20:00,0.518,0.787,0.486,0.978,0.707,0.318,0.565,0.526,���k��,3.2,��
2023/10/12,20:10,0.518,0.789,0.485,0.979,0.706,0.316,0.566,0.527,���k��,2.9,��
2023/10/12,20:20,0.518,0.791,0.486,0.977,0.707,0.317,0.566,0.527,��,2.6,��
2023/10/12,20:30,0.519,0.790,0.484,0.975,0.708,0.319,0.565,0.527,���k��,2.0,��
2023/10/12,20:40,0.516,0.791,0.486,0.978,0.705,0.316,0.566,0.528,���k��,1.2,��
2023/10/12,20:50,0.518,0.789,0.484,0.975,0.706,0.316,0.567,0.526,���쐼,1.5,��
2023/10/12,21:00,0.518,0.790,0.484,0.977,0.705,0.316,0.569,0.526,���쐼,2.0,��
2023/10/12,21:10,0.517,0.790,0.485,0.976,0.707,0.318,0.568,0.526,���쐼,2.2,��
2023/10/12,21:20,0.517,0.789,0.484,0.977,0.704,0.317,0.566,0.528,���쐼,2.3,��
2023/10/12,21:30,0.518,0.790,0.485,0.976,0.707,0.316,0.567,0.527,���k��,2.3,��
2023/10/12,21:40,0.518,0.792,0.486,0.976,0.705,0.317,0.568,0.527,��,2.0,��
2023/10/12,21:50,0.519,0.788,0.484,0.976,0.706,0.317,0.566,0.529,��,2.3,��
2023/10/12,22:00,0.517,0.790,0.485,0.978,0.706,0.317,0.568,0.528,��,2.5,��
2023/10/12,22:10,0.517,0.789,0.486,0.977,0.705,0.318,0.568,0.527,��,2.2,��
2023/10/12,22:20,0.518,0.788,0.485,0.977,0.705,0.317,0.566,0.527,��,2.2,��
2023/10/12,22:30,0.518,0.789,0.484,0.976,0.706,0.317,0.565,0.527,���k��,2.9,��
2023/10/12,22:40,0.518,0.790,0.485,0.977,0.706,0.317,0.566,0.528,���k��,2.8,��
2023/10/12,22:50,0.519,0.790,0.486,0.978,0.705,0.316,0.567,0.528,��,3.5,��
2023/10/12,23:00,0.519,0.789,0.486,0.977,0.706,0.318,0.567,0.528,���k��,4.4,��
2023/10/12,23:10,0.518,0.789,0.484,0.977,0.706,0.316,0.565,0.528,���k��,5.1,��
2023/10/12,23:20,0.518,0.787,0.484,0.976,0.706,0.317,0.567,0.526,���k��,4.7,��
2023/10/12,23:30,0.518,0.788,0.484,0.977,0.705,0.315,0.566,0.527,���k��,5.0,��
2023/10/12,23:40,0.518,0.789,0.485,0.976,0.706,0.316,0.568,0.527,���k��,6.1,��
2023/10/12,23:50,0.517,0.786,0.485,0.976,0.703,0.316,0.567,0.526,���k��,6.3,��
